Regional Weather Roundup
Issued by NWS Kansas City/Pleasant Hill, MO

Home | Current Version | Previous Version | Text Only | Print | Product List | Glossary On
Versions: 1 2 3 4 5 6 7 8 9 10 11 12 13 14 15 16 17 18 19 20 21 22 23 24 25 26 27 28 29 30 31 32 33 34 35 36 37 38 39 40 41 42 43 44 45 46 47 48 49 50
000
ASUS43 KEAX 282010
RWREAX

WEATHER ROUNDUP FOR EASTERN KANSAS AND NORTHWEST MISSOURI
NATIONAL WEATHER SERVICE KANSAS CITY/PLEASANT HILL MO
300 PM CDT FRI AUG 28 2015

KSZ040-057-103>105-MOZ028-029-037-043-282100-
...KANSAS CITY METROPOLITAN AREA...

CITY           SKY/WX    TMP DP  RH WIND       PRES   REMARKS
K.C. INTL      CLOUDY    78  65  63 S15       29.90F
K.C. DOWNTOWN  PTSUNNY   80  66  62 S18G24    29.91F
LEES SUMMIT    PTSUNNY   78  65  63 S14G23    29.94F
OLATHE - IXD   MOSUNNY   77  67  71 S21G26    29.93F
OLATHE - OJC   MOSUNNY   75  66  73 S15       29.93F
LAWRENCE       PTSUNNY   80  67  64 S13G26    29.89F

$$

MOZ001>008-011>017-020>025-030>033-038>040-044>046-053-054-282100-
...NORTHERN AND CENTRAL MISSOURI...

CITY           SKY/WX    TMP DP  RH WIND       PRES   REMARKS
ST. JOSEPH     PTSUNNY   80  68  66 S14       29.89S
MOSBY          MOCLDY    77  64  65 S13G25    29.92F
WARRENSBURG    LGT RAIN  73  64  73 SE10G20   29.95F
WHITEMAN AFB   LGT RAIN  76  66  70 S14       29.97F
CLINTON          N/A     75  70  83 S7        29.99F
SEDALIA        CLOUDY    78  66  66 S13       30.01F
WARSAW         NOT AVBL
CHILLICOTHE      N/A     78  66  66 S12G21    29.93F
KIRKSVILLE     CLOUDY    73  62  68 S13       29.99F

$$

MOZ041-047>049-056>058-063>065-088>090-097-282100-
...EASTERN AND SOUTHERN MISSOURI...

CITY           SKY/WX    TMP DP  RH WIND       PRES   REMARKS
ST. LOUIS INTL CLOUDY    81  59  47 SE14G22   30.07F
SPIRIT OF STL  PTSUNNY   79  63  57 SE7       30.05F
COLUMBIA       CLOUDY    79  64  60 SE13      30.02F
JEFFERSON CITY CLOUDY    81  61  50 SE12      30.01F
ROLLA          CLOUDY    79  62  56 SW12      30.05S
OSAGE BEACH    CLOUDY    81  63  54 S8        30.04S
SPRINGFIELD    CLOUDY    76  62  62 S9        30.04S
BRANSON        PTSUNNY   82  63  51 SE10      30.06F
JOPLIN         CLOUDY    78  66  66 S13       29.99F
WEST PLAINS    MOSUNNY   79  58  48 S7        30.08F

$$

IAZ060-094-KSZ022-034>040-054-083-096-NEZ052-066-093-282100-
...KANSAS...SOUTHEAST NEBRASKA AND IOWA...

CITY           SKY/WX    TMP DP  RH WIND       PRES   REMARKS
TOPEKA         MOSUNNY   84  69  60 S17G25    29.88S
MANHATTAN      MOSUNNY   87  71  58 SW9       29.85F HX  93
EMPORIA        SUNNY     82  68  62 S20G25    29.90F
CHANUTE        PTSUNNY   74  67  78 S18       29.96F
WICHITA        MOSUNNY   87  69  54 S9G18     29.90F HX  91
OMAHA          CLOUDY    76  69  79 NW13      29.83R
LINCOLN        CLOUDY    77  66  68 NW14      29.88R
FALLS CITY     CLOUDY    81  69  67 S8        29.84F
LAMONI         LGT RAIN  74  68  81 S9G17     29.91S
DES MOINES     CLOUDY    74  67  78 S16G22    29.85F

$$




USA.gov is the U.S. government's official web portal to all federal, state and local government web resources and services.